Historyczne dane pomiarowe

Dodano dane terminowe – wersja testowa.

Dane z okresu 1951-2019

Wersja bazy: 1.34 [2019-03-16, lista zmian], aktualizacja planowana na 2019-04-15

Dane meteo z obszaru Polski uzyskane na podstawie danych udostępnionych przez Instytut Meteorologii i Gospodarki Wodnej – Państwowy Instytut Badawczy.

 

Wybierz Datę:    

       

TemperaturaWilgotnośćWiatrCiśnienieOpadyŚniegCzas trwania zjawisk
 Stacja t tx tn tng RH VA  wxwx mslp ppp RRR   cm mm wxwxwxwxwxwxwx
1956-11-09 -5.4 -3.4 -9.5-13.1 82.3- 7.0 1.0---- 0.0------------
1956-11-08 -4.9 -1.2 -7.0 -8.6 74.3- 1.0 4.3---- 0.0------------
1956-11-07 -2.0 0.8 -4.1 -4.0 78.8- 4.3 7.0---- 0.0------------
1956-11-06 0.8 4.6 -0.2 -2.1 82.5- 5.7 6.3---- 0.0------------
1956-11-05 1.1 4.5 -5.0 -6.1 94.3- 6.3 5.0---- 1.5------------
1956-11-04 -2.2 3.6 -5.4 -9.1 81.3- 1.7 2.0---- 0.0------------
1956-11-03 -1.2 1.0 -3.4 -5.8 94.8- 5.3 1.7---- 0.0-- 1---------
1956-11-02 -1.5 2.4 -4.0 -1.7 93.5- 3.7 2.0---- 0.1-- 1---------
1956-11-01 -0.9 1.1 -7.3 -8.2 78.3- 7.7 7.0---- 2.0------------
1956-10-31 -5.5 -2.5 -8.1 -9.1 77.5- 1.7 3.3---- 0.0------------
1956-10-30 -2.0 5.4 -3.0 0.0 90.5- 8.0 4.3---- 0.5------------
1956-10-29 5.6 8.3 3.7 0.4 92.3- 6.0 3.0---- 4.3------------
1956-10-28 8.4 10.0 7.6 8.2 99.0- 8.0 6.3---- 15.8------------
1956-10-27 7.6 9.6 4.2 3.8 98.3- 8.0 4.0---- 1.5------------
1956-10-26 7.3 14.9 2.1 -1.1 94.5- 4.7 1.7---- 0.0------------
1956-10-25 10.4 16.7 6.2 2.6 90.3- 0.3 4.0---- 0.0------------
1956-10-24 11.2 13.2 6.8 3.4 86.5- 7.7 4.0---- 0.0------------
1956-10-23 9.6 11.6 8.7 8.7 81.0- 8.0 3.3---- 0.0------------
1956-10-22 11.2 12.6 10.4 7.3 88.8- 8.0 6.3---- 0.0------------
1956-10-21 11.7 14.6 7.0 1.9 91.3- 6.7 2.7---- 0.0------------
1956-10-20 8.1 11.9 6.1 2.8 95.8- 7.7 2.3---- 0.0------------
1956-10-19 9.4 12.3 8.6 8.0 98.3- 7.3 3.7---- 2.0------------
1956-10-18 8.4 13.3 -0.2 -3.7 91.5- 8.0 3.3---- 0.4------------
1956-10-17 2.8 11.6 -3.1 -6.3 92.8- 3.3 0.7---- 0.0------------
1956-10-16 3.6 9.2 1.2 -2.8 91.5- 5.7 2.0---- 0.0------------
1956-10-15 5.7 10.5 2.2 0.2 83.8- 2.3 4.7---- 0.0------------
1956-10-14 7.5 10.9 6.2 5.3 75.0- 4.3 11.0---- 0.0------------
1956-10-13 9.6 11.2 7.6 6.8 82.3- 7.3 10.3---- 11.2------------
1956-10-12 9.2 11.2 7.4 7.1 90.0- 7.3 5.3---- 0.0------------
1956-10-11 7.6 9.9 1.6 -2.1 85.8- 7.0 4.3---- 1.8------------
1956-10-10 2.4 7.5 -0.3 -3.6 87.5- 2.7 2.3---- 0.0------------
1956-10-09 5.9 9.9 0.4 -2.8 88.8- 5.7 4.0---- 0.3------------
1956-10-08 5.2 9.2 3.6 4.3 90.8- 5.0 3.0---- 0.1------------
1956-10-07 6.0 10.4 2.2 2.0 92.5- 8.0 8.7---- 10.5------------
1956-10-06 9.6 11.6 7.6 2.8100.0- 8.0 2.0---- 23.4------------
1956-10-05 10.4 14.5 7.9 8.7 93.5- 6.0 2.7---- 1.0------------
1956-10-04 8.2 13.0 4.9 1.9 99.8- 8.0 0.3---- 3.5------------
1956-10-03 15.2 21.0 12.7 7.5 78.0- 4.3 4.3---- 0.0------------
1956-10-02 17.6 24.9 10.2 5.9 77.0- 1.0 2.3---- 0.0------------
1956-10-01 13.2 20.7 2.7 -0.1 87.0- 3.0 2.3---- 0.0------------
1956-09-30 10.9 17.8 7.7 7.3 86.8- 2.7 2.7---- 0.0------------
1956-09-29 16.6 21.3 12.2 9.2 82.5- 6.3 4.7---- 0.2------------
1956-09-28 14.6 20.3 9.0 5.3 86.5- 4.0 2.3---- 0.0------------
1956-09-27 12.7 21.8 3.2 -1.1 75.3- 2.3 3.0---- 0.0------------
1956-09-26 10.6 20.3 2.2 -1.6 82.3- 0.0 2.0---- 0.0------------
1956-09-25 8.4 17.7 0.5 -2.6 77.8- 3.3 4.0---- 0.0------------
1956-09-24 5.6 13.3 0.2 -3.0 77.0- 1.3 1.7---- 0.0------------
1956-09-23 8.4 14.7 5.2 0.4 77.8- 5.3 3.7---- 0.0------------
1956-09-22 11.1 17.7 2.9 0.9 83.5- 4.3 1.3---- 0.0------------
1956-09-21 9.2 18.1 3.5 2.4 88.3- 2.3 0.3---- 0.0------------
1956-09-20 9.2 16.5 1.6 -1.6 84.8- 7.3 1.7---- 0.0------------
1956-09-19 7.5 14.3 1.6 -0.8 90.0- 2.0 1.0---- 0.0------------
1956-09-18 7.2 11.2 5.4 4.7 90.0- 4.7 3.0---- 0.0------------
1956-09-17 8.1 13.2 6.7 4.4 84.3- 5.3 2.3---- 1.0------------
1956-09-16 9.6 12.5 4.6 0.8 81.5- 8.0 4.0---- 0.0------------
1956-09-15 10.0 14.1 3.2 0.4 85.3- 4.0 2.7---- 0.0------------
1956-09-14 9.0 13.7 7.0 5.7 83.5- 4.0 3.0---- 0.0------------
1956-09-13 10.2 14.1 6.7 4.8 83.8- 6.7 3.7---- 1.1------------
1956-09-12 11.2 13.4 9.0 5.9 93.0- 7.7 3.7---- 16.6------------
1956-09-11 11.6 13.5 11.2 10.5 99.3- 8.0 2.7---- 5.1------------
241.9 ms

 

Źródłem pochodzenia danych jest Instytut Meteorologii i Gospodarki Wodnej – Państwowy Instytut Badawczy. Dane Instytutu Meteorologii i Gospodarki Wodnej – Państwowego Instytutu Badawczego zostały przetworzone.

Dane źródłowe można odnaleźć na stronie https://dane.imgw.pl